TimeCST,TemperatureF,Dew PointF,Humidity,Sea Level PressureIn,VisibilityMPH,Wind Direction,Wind SpeedMPH,Gust SpeedMPH,PrecipitationIn,Events,Conditions,WindDirDegrees,DateUTC
12:58 AM,34.0,34.0,100,30.33,8.0,Calm,Calm,-,N/A,,Clear,0,2012-11-17 06:58:00
1:58 AM,34.0,33.1,96,30.32,10.0,Calm,Calm,-,N/A,,Clear,0,2012-11-17 07:58:00
2:58 AM,33.1,32.0,96,30.32,9.0,Calm,Calm,-,N/A,,Clear,0,2012-11-17 08:58:00
3:58 AM,32.0,30.9,96,30.33,9.0,Calm,Calm,-,N/A,,Clear,0,2012-11-17 09:58:00
4:58 AM,32.0,30.9,96,30.34,10.0,North,5.8,-,N/A,,Clear,350,2012-11-17 10:58:00
5:58 AM,30.9,30.9,100,30.36,10.0,NNW,3.5,-,N/A,,Clear,330,2012-11-17 11:58:00
6:58 AM,33.1,32.0,96,30.38,7.0,Calm,Calm,-,N/A,,Clear,0,2012-11-17 12:58:00
7:58 AM,41.0,37.0,86,30.39,10.0,Calm,Calm,-,N/A,,Clear,0,2012-11-17 13:58:00
8:58 AM,48.9,37.9,66,30.41,10.0,NNE,4.6,-,N/A,,Clear,30,2012-11-17 14:58:00
9:58 AM,55.0,39.9,57,30.41,10.0,NNE,3.5,-,N/A,,Clear,30,2012-11-17 15:58:00
10:58 AM,60.1,37.0,42,30.40,10.0,East,9.2,-,N/A,,Clear,90,2012-11-17 16:58:00
11:58 AM,62.1,36.0,38,30.36,10.0,NNE,10.4,-,N/A,,Clear,30,2012-11-17 17:58:00
12:58 PM,63.0,36.0,37,30.34,10.0,NE,9.2,-,N/A,,Clear,50,2012-11-17 18:58:00
1:58 PM,64.0,34.0,33,30.32,10.0,NNE,10.4,-,N/A,,Clear,20,2012-11-17 19:58:00
2:58 PM,64.0,33.1,31,30.31,10.0,NE,9.2,-,N/A,,Clear,40,2012-11-17 20:58:00
3:58 PM,62.1,35.1,37,30.31,10.0,NNE,10.4,-,N/A,,Clear,20,2012-11-17 21:58:00
4:58 PM,53.1,37.9,57,30.32,10.0,NNW,4.6,-,N/A,,Clear,330,2012-11-17 22:58:00
5:58 PM,46.9,39.9,77,30.33,10.0,Calm,Calm,-,N/A,,Clear,0,2012-11-17 23:58:00
6:58 PM,43.0,39.0,86,30.34,10.0,Calm,Calm,-,N/A,,Clear,0,2012-11-18 00:58:00
7:58 PM,39.9,37.9,93,30.34,10.0,Calm,Calm,-,N/A,,Clear,0,2012-11-18 01:58:00
8:58 PM,39.0,37.0,93,30.34,10.0,Calm,Calm,-,N/A,,Clear,0,2012-11-18 02:58:00
9:58 PM,37.0,36.0,96,30.35,10.0,Calm,Calm,-,N/A,,Clear,0,2012-11-18 03:58:00
10:58 PM,36.0,35.1,97,30.36,10.0,Calm,Calm,-,N/A,,Clear,0,2012-11-18 04:58:00
11:58 PM,35.1,34.0,96,30.36,10.0,Calm,Calm,-,N/A,,Clear,0,2012-11-18 05:58:00